[[{"header":{"parameterUnit":"m.s-1","parameterCategory":1,"la1":30.2992,"la2":30.254,"lo1":-89.0895,"lo2":-89.0443,"dy":0.0025,"dx":0.0025,"nx":19,"ny":19,"refTime":"2026-05-17T21:00:00:Z","depth":0,"parameterNumber":2,"parameterNumberName":"U-component_of_WINDS"},"data":[0,0,0,-4.9246,-4.9247,-4.9265,-4.9265,-4.9317,-4.9317,0,0,0,0,0,0,0,0,0,0,0,-4.9258,-4.9259,-4.9246,-4.9247,-4.9265,-4.9265,-4.9316,-4.9317,0,0,0,0,0,0,0,0,0,0,0,-4.9257,-4.9258,-4.926,-4.9247,-4.9265,-4.9265,-4.9316,-4.9293,0,0,0,0,0,0,0,0,0,0,-4.9271,-4.9297,-4.9258,-4.926,-4.9248,-4.9265,-4.9265,-4.9291,-4.9294,-4.9321,0,-4.9348,0,-4.9334,-4.9323,-4.9323,0,0,0,-4.9235,-4.9295,-4.9284,-4.926,-4.9248,-4.9265,-4.9253,-4.9292,-4.9296,-4.9325,-4.9349,-4.935,-4.9335,-4.9323,-4.9323,-4.9518,-4.952,0,0,-4.9234,-4.927,-4.9282,-4.9288,-4.9286,-4.9253,-4.9254,-4.9294,-4.9322,-4.9349,-4.935,-4.9336,-4.9324,-4.9324,-4.9517,-4.9518,0,0,0,-4.9239,-4.927,-4.9258,-4.9286,-4.9287,-4.9254,-4.9255,-4.932,-4.9314,-4.9351,-4.9336,-4.9324,-4.9325,-4.9515,-4.9517,-4.9626,0,0,0,-4.9238,-4.9273,-4.9258,-4.9281,-4.9287,-4.9304,-4.9281,-4.9311,-4.9314,-4.9336,-4.9324,-4.9326,-4.9513,-4.9516,-4.9619,-4.967,0,0,0,-4.9251,-4.9274,-4.9283,-4.9282,-4.9291,-4.9302,-4.9297,-4.9311,-4.9306,-4.9323,-4.9326,-4.9512,-4.9516,-4.9613,-4.966,-4.9732,0,0,0,-4.9275,-4.9378,-4.9285,-4.9395,-4.9292,-4.937,-4.9297,-4.9353,-4.9381,-4.9324,-4.9513,-4.9517,-4.9611,-4.9654,-4.9726,-4.9797,-4.9831,0,0,-4.9425,-4.9398,-4.946,-4.9377,-4.9481,-4.9364,-4.9485,-4.9475,-4.9444,-4.9495,-4.95,-4.9621,-4.966,-4.973,-5.0009,-5.0036,0,0,0,-4.952,-4.9565,-4.9584,-4.9612,-4.9609,-4.961,-4.9579,-4.9576,-4.9618,-4.9478,-4.9666,-4.9688,-4.9728,-4.976,-4.9783,-4.9815,-4.9534,-4.9534,-4.9533,-4.9783,-4.9738,-4.9838,-4.9797,-4.9825,-4.9793,-4.9813,-4.9803,-4.9749,-4.9795,-4.9809,-4.9983,-5.0023,-5.004,-5.0074,-4.9844,-4.9845,-4.9845,-4.9845,-4.9998,-5.0054,-4.9983,-5.0053,-5.0007,-5.0066,-5.0041,-5.0001,-5.005,-4.9968,-5.0001,-4.9915,-5.0071,-5.0098,-4.9853,-4.9852,-4.9851,-4.985,-4.985,-5.0164,-5.0183,-5.0179,-5.0216,-5.0251,-5.0206,-5.0257,-5.0212,-5.0171,-5.0204,-5.0214,-5.0212,-5.0204,-5.0212,-5.0213,-5.0214,-5.0214,-5.0215,-5.0215,-5.0337,-5.0328,-5.0376,-5.0384,-5.0397,-5.0409,-5.0381,-5.0393,-5.0395,-5.0359,-5.0358,-5.03,-5.0095,-5.0043,-5.0224,-5.0222,-5.0221,-5.022,-5.022,-5.0568,-5.051,-5.0584,-5.0598,-5.0603,-5.0641,-5.0585,-5.0615,-5.0618,-5.0645,-5.0581,-5.0437,-5.0405,-5.0386,-5.0343,-5.0591,-5.0591,-5.0591,-5.0591,-5.0707,-5.0688,-5.0754,-5.078,-5.0799,-5.0757,-5.0844,-5.0825,-5.0795,-5.0795,-5.0753,-5.0693,-5.0676,-5.0654,-5.063,-5.0589,-5.0893,-5.0893,-5.0894,-5.0847,-5.0828,-5.0909,-5.088,-5.0882,-5.0886,-5.0966,-5.0999,-5.0953,-5.0905,-5.0794,-5.0781,-5.0683,-5.0654,-5.0601,-5.0564,-5.0488,0,0]},{"header":{"parameterUnit":"m.s-1","parameterCategory":1,"la1":30.2992,"la2":30.254,"lo1":-89.0895,"lo2":-89.0443,"dy":0.0025,"dx":0.0025,"nx":19,"ny":19,"refTime":"2026-05-17T21:00:00:Z","depth":0,"parameterNumber":3,"parameterNumberName":"V-component_of_WINDS"},"data":[0,0,0,4.2378,4.2378,4.2366,4.2366,4.2356,4.2356,0,0,0,0,0,0,0,0,0,0,0,4.2385,4.2386,4.2378,4.2378,4.2366,4.2366,4.2356,4.2356,0,0,0,0,0,0,0,0,0,0,0,4.2385,4.2386,4.2386,4.2378,4.2366,4.2366,4.2356,4.2363,0,0,0,0,0,0,0,0,0,0,4.2374,4.2384,4.2386,4.2386,4.2378,4.2366,4.2366,4.2363,4.2363,4.2364,0,4.2367,0,4.2362,4.2356,4.2356,0,0,0,4.2375,4.2385,4.2378,4.2386,4.2378,4.2366,4.2371,4.2363,4.2362,4.2363,4.2367,4.2366,4.2362,4.2356,4.2356,4.2378,4.2378,0,0,4.2376,4.2385,4.2379,4.2378,4.2381,4.2371,4.237,4.2363,4.2367,4.2367,4.2366,4.2361,4.2356,4.2356,4.2378,4.2378,0,0,0,4.238,4.2386,4.2379,4.2379,4.2376,4.2371,4.237,4.2367,4.2364,4.2366,4.2361,4.2356,4.2356,4.2377,4.2378,4.24,0,0,0,4.238,4.2388,4.238,4.2385,4.2377,4.2372,4.2375,4.2365,4.2363,4.2361,4.2356,4.2356,4.2377,4.2377,4.2399,4.2409,0,0,0,4.2385,4.2388,4.2388,4.2386,4.2381,4.2371,4.2368,4.2364,4.2361,4.2356,4.2356,4.2377,4.2377,4.2398,4.2407,4.2418,0,0,0,4.2393,4.2407,4.2389,4.2403,4.2382,4.2386,4.2368,4.237,4.2369,4.2356,4.2377,4.2378,4.2397,4.2406,4.2417,4.2429,4.2435,0,0,4.2416,4.241,4.2418,4.2401,4.2411,4.2387,4.24,4.2389,4.2379,4.2379,4.2379,4.2399,4.2407,4.2418,4.2466,4.2471,0,0,0,4.2428,4.2434,4.2435,4.2435,4.2428,4.2423,4.2409,4.2405,4.2405,4.2381,4.2406,4.241,4.2416,4.2422,4.2426,4.2431,4.2381,4.238,4.238,4.2474,4.2463,4.2475,4.2462,4.2462,4.2449,4.2448,4.2441,4.2427,4.2434,4.2433,4.2464,4.2471,4.2474,4.2479,4.2439,4.2439,4.2439,4.2439,4.2508,4.2514,4.2498,4.2504,4.2492,4.2497,4.2485,4.2476,4.2478,4.2463,4.2467,4.2451,4.248,4.2484,4.2441,4.244,4.244,4.244,4.244,4.2536,4.2538,4.2534,4.2534,4.2535,4.2522,4.2526,4.2514,4.2502,4.2507,4.2506,4.2505,4.2504,4.2507,4.2507,4.2508,4.2508,4.2508,4.2508,4.2568,4.2563,4.2568,4.2564,4.2563,4.256,4.2549,4.2547,4.2543,4.2534,4.2534,4.2521,4.2485,4.2476,4.2509,4.2509,4.2509,4.2509,4.2509,4.2606,4.2596,4.2604,4.2604,4.2598,4.2601,4.2586,4.2585,4.2582,4.2585,4.2571,4.2547,4.2539,4.2536,4.2528,4.2573,4.2573,4.2573,4.2573,4.263,4.2626,4.2633,4.2633,4.2632,4.262,4.263,4.2622,4.2611,4.2609,4.2601,4.259,4.2587,4.2582,4.2577,4.257,4.2625,4.2625,4.2625,4.2654,4.2649,4.266,4.265,4.2646,4.2642,4.2651,4.2652,4.2638,4.2627,4.2607,4.2605,4.2588,4.2583,4.257,4.2564,4.2551,0,0]}]]